IRIDIUM 116 (43072 NORAD) Tracking and Keplerian Element Data

This shows tracking and keplerian element data for the satellite.

Feedback or suggestion? Click here.




ElementValue
Catalog43072
NameIRIDIUM 116
Epoch Orbit41850
Epoch Day354.11920578
Epoch Year2025
RAAN36.8467
Inclination86.3959
Eccentricity0.0002517
Argument of Perigee93.8192
Mean Anonmoly266.3292
Mean Motion14.34217769
Decay Rate1.39E-06
L11 43072U 17083C 25354.11920578 .00000139 00000+0 42683-4 0 9996
L22 43072 86.3959 36.8467 0002517 93.8192 266.3292 14.34217769418501



Live tracking and technical data element details for IRIDIUM 116 (NORAD 43072). IRIDIUM 116 can be tracked NOW for your location showing map with azimuth and elevation plus other details from your city location.







IsCatalogInMostPopularTable: catalog: 43072, numindb: 847
Update: records affected: 1



GetName: 43072 IRIDIUM 116

Hit Count: updated at: Sat, 07 Mar 2026 06:18:50 GMT